FYKT

Details ICAO FYKT (KMP)
Name KEETMANSHOOP
Region Namibia
Timezone Africa/Windhoek (UTC+2.0)
Plans Departing 12
Arriving 13
Stats Elevation 3,506 ft / 1,069 m (AMSL)
Location -26.538792° 18.111776°
Runways 2
Magnetic Variation 16.807° W
Sunrise 2018-05-22 05:24:20 UTC / 2018-05-22 07:24:20 Local
Sunset 2018-05-22 16:06:57 UTC / 2018-05-22 18:06:57 Local
Advertisement - Login to hide

Runways

ID Width Length Bearing (true) Bearing (mag) Surface Threshold Offset Overrun Length
04 148 ft / 45 m 7,557 ft / 2,303 m 15.97° 32.78° Asphalt 0 ft / 0 m 0 ft / 0 m
18 98 ft / 30 m 4,697 ft / 1,432 m 155.34° 172.15° Gravel 0 ft / 0 m 0 ft / 0 m
22 148 ft / 45 m 7,557 ft / 2,303 m 195.96° 212.77° Asphalt 0 ft / 0 m 0 ft / 0 m
36 98 ft / 30 m 4,697 ft / 1,432 m 335.34° 352.15° Gravel 0 ft / 0 m 0 ft / 0 m

Map

Weather


0- 5 10 15 20 25 30 35+ Temperature / ° C

Clouds and Precipitation
Forecast for 2018-05-22 00:00 UTC. Updated 4 hours ago

Ground ~20,000 ft ~40,000 ft Winds

METAR

FYKT 220200Z AUTO 00000KT //// // ////// 11/06 Q1022

TAF

TAF FYKT 212200Z 2200/2300 00000KT CAVOK BECMG 2208/2210 04008KT

Frequencies

Tower 118.30 MHz TWR
Warning: Do not use this data for real-world aviation or navigation. No guarantee of current accuracy is given.